Location: Cahas Mountain Overlook
(37.0833°N, 80.1000°W)
Time: 19:13:49
(UTC-04:00)

SR - Pass Details

Date: 15 February 2026
Orbit: 572 x 849 km, 66.7° (Epoch: 12 March)

Event Time Altitude Azimuth Distance (km) Brightness Sun altitude
Rises 05:28:17 0° 217° (SW) 2,761 - -20.7°
Reaches altitude 10° 05:30:31 10° 222° (SW) 1,868 - -20.3°
Exits shadow 05:34:03 50° 271° (W) 740 ? -19.5°
Maximum altitude 05:34:35 54° 300° (WNW) 707 ? -19.4°
Drops below altitude 10° 05:38:49 10° 19° (NNE) 1,938 ? -18.6°
Sets 05:41:10 0° 24° (NNE) 2,877 ? -18.1°
